Location: Newark
(47.5833°N, 8.1500°E)
Time: 10:29:26
(UTC+00:00)

Altair - Pass Details

Date: 03 November 2020
Orbit: 1502 x 1682 km, 47.2° (Epoch: 25 November)

Event Time Altitude Azimuth Distance (km) Brightness Sun altitude
Exits shadow 01:33:04 24° 118° (ESE) 2,743 8.9 -46.3°
Drops below altitude 10° 01:38:38 10° 82° (E) 3,714 10.0 -45.5°
Sets 01:42:24 0° 70° (ENE) 4,725 10.8 -45.0°
